When you browse on this site, cookies collect data to enhance your experience and personalize the content and advertising you see.
Visit our Privacy Policy to learn more. By continuing to use the site, you agree to this use of cookies and data.

Hourly Weather Chichester

Today, 16 July, Thursday

Time Temperature Precipitation Wind Pressure Humidity
00:00 +16°C° 0 mm 3 mps 762 mmHg 88%
01:00 +16°C° 0 mm 3 mps 762 mmHg 89%
02:00 +14°C° 0 mm 3 mps 762 mmHg 89%
03:00 +14°C° 0 mm 3 mps 762 mmHg 90%
04:00 +14°C° 0 mm 3 mps 762 mmHg 88%
05:00 +15°C° 0 mm 4 mps 762 mmHg 87%
06:00 +15°C° 0 mm 4 mps 762 mmHg 85%
07:00 +17°C° 0 mm 4 mps 762 mmHg 82%
08:00 +18°C° 0 mm 4 mps 763 mmHg 78%
09:00 +19°C° 0 mm 4 mps 763 mmHg 75%
10:00 +20°C° 0 mm 4 mps 763 mmHg 73%
11:00 +20°C° 0 mm 4 mps 764 mmHg 71%
12:00 +20°C° 0 mm 4 mps 764 mmHg 69%
13:00 +21°C° 0 mm 4 mps 764 mmHg 69%
14:00 +21°C° 0 mm 4 mps 764 mmHg 69%
15:00 +21°C° 0 mm 3 mps 763 mmHg 69%
16:00 +21°C° 0 mm 3 mps 764 mmHg 70%
17:00 +21°C° 0 mm 3 mps 764 mmHg 70%
18:00 +21°C° 0 mm 3 mps 764 mmHg 70%
19:00 +20°C° 0 mm 2 mps 764 mmHg 74%
20:00 +19°C° 0 mm 2 mps 764 mmHg 78%
21:00 +19°C° 0 mm 2 mps 764 mmHg 82%
22:00 +18°C° 0 mm 2 mps 764 mmHg 85%
23:00 +18°C° 0 mm 3 mps 764 mmHg 87%

Tomorrow, 17 July, Friday

Time Temperature Precipitation Wind Pressure Humidity
00:00 +18°C° 0 mm 3 mps 764 mmHg 90%
01:00 +18°C° 0 mm 3 mps 764 mmHg 90%
02:00 +17°C° 0 mm 3 mps 764 mmHg 90%
03:00 +17°C° 0 mm 3 mps 764 mmHg 90%
04:00 +17°C° 0 mm 2 mps 764 mmHg 89%
05:00 +18°C° 0 mm 2 mps 764 mmHg 87%
06:00 +18°C° 0 mm 2 mps 764 mmHg 86%
07:00 +19°C° 0 mm 2 mps 764 mmHg 81%
08:00 +20°C° 0 mm 2 mps 764 mmHg 75%
09:00 +23°C° 0 mm 2 mps 764 mmHg 69%
10:00 +22°C° 0 mm 3 mps 764 mmHg 67%
11:00 +23°C° 0 mm 4 mps 764 mmHg 65%
12:00 +23°C° 0 mm 4 mps 764 mmHg 62%
13:00 +25°C° 0 mm 5 mps 764 mmHg 62%
14:00 +25°C° 0 mm 5 mps 763 mmHg 62%
15:00 +25°C° 0 mm 5 mps 763 mmHg 62%
16:00 +23°C° 0 mm 5 mps 763 mmHg 65%
17:00 +22°C° 0 mm 5 mps 763 mmHg 69%
18:00 +21°C° 0 mm 5 mps 763 mmHg 72%
19:00 +20°C° 0 mm 5 mps 763 mmHg 77%
20:00 +18°C° 0 mm 4 mps 763 mmHg 83%
21:00 +15°C° 0 mm 4 mps 763 mmHg 89%
22:00 +16°C° 0 mm 3 mps 763 mmHg 90%
23:00 +14°C° 0 mm 3 mps 763 mmHg 91%

Day after tomorrow, 18 July, Saturday

Time Temperature Precipitation Wind Pressure Humidity
00:00 +13°C° 0 mm 3 mps 763 mmHg 93%
01:00 +13°C° 0 mm 3 mps 763 mmHg 93%
02:00 +13°C° 0 mm 3 mps 763 mmHg 94%
03:00 +13°C° 0 mm 3 mps 762 mmHg 94%
04:00 +13°C° 0 mm 3 mps 762 mmHg 93%
05:00 +14°C° 0 mm 3 mps 762 mmHg 91%
06:00 +14°C° 0 mm 3 mps 762 mmHg 90%
07:00 +17°C° 0 mm 4 mps 762 mmHg 85%
08:00 +18°C° 0 mm 4 mps 762 mmHg 79%
09:00 +20°C° 0 mm 4 mps 762 mmHg 74%
10:00 +21°C° 0 mm 5 mps 762 mmHg 71%
11:00 +21°C° 0 mm 5 mps 762 mmHg 69%
12:00 +22°C° 0 mm 5 mps 762 mmHg 66%
13:00 +22°C° 0 mm 5 mps 761 mmHg 68%
14:00 +22°C° 0 mm 5 mps 761 mmHg 71%
15:00 +21°C° 0 mm 6 mps 761 mmHg 73%
16:00 +21°C° 0 mm 5 mps 761 mmHg 77%
17:00 +20°C° 0 mm 5 mps 761 mmHg 80%
18:00 +20°C° 0 mm 4 mps 760 mmHg 83%
19:00 +19°C° 0 mm 4 mps 761 mmHg 86%
20:00 +19°C° 0 mm 4 mps 761 mmHg 89%
21:00 +18°C° 0 mm 3 mps 761 mmHg 92%
22:00 +18°C° 0.4 mm 3 mps 760 mmHg 94%
23:00 +17°C° 0.4 mm 3 mps 760 mmHg 95%

19 July, Sunday

Time Temperature Precipitation Wind Pressure Humidity
00:00 +17°C° 0.4 mm 3 mps 760 mmHg 97%
01:00 +17°C° 0.3 mm 3 mps 760 mmHg 97%
02:00 +17°C° 0.3 mm 3 mps 760 mmHg 97%
03:00 +17°C° 0.3 mm 4 mps 760 mmHg 97%
04:00 +15°C° 0.5 mm 4 mps 760 mmHg 96%
05:00 +14°C° 0.5 mm 4 mps 760 mmHg 94%
06:00 +13°C° 0.5 mm 4 mps 760 mmHg 93%
07:00 +14°C° 0 mm 4 mps 760 mmHg 87%
08:00 +15°C° 0 mm 4 mps 760 mmHg 80%
09:00 +17°C° 0 mm 4 mps 761 mmHg 74%
10:00 +18°C° 0 mm 3 mps 761 mmHg 68%
11:00 +19°C° 0 mm 3 mps 761 mmHg 61%
12:00 +20°C° 0 mm 2 mps 761 mmHg 55%
13:00 +20°C° 0 mm 2 mps 761 mmHg 54%
14:00 +21°C° 0 mm 3 mps 761 mmHg 54%
15:00 +21°C° 0 mm 3 mps 761 mmHg 53%
16:00 +20°C° 0 mm 3 mps 761 mmHg 56%
17:00 +20°C° 0 mm 4 mps 761 mmHg 59%
18:00 +19°C° 0 mm 4 mps 761 mmHg 62%
19:00 +18°C° 0 mm 4 mps 761 mmHg 68%
20:00 +15°C° 0 mm 4 mps 762 mmHg 74%
21:00 +14°C° 0 mm 4 mps 762 mmHg 80%
22:00 +13°C° 0 mm 5 mps 762 mmHg 79%
23:00 +13°C° 0 mm 5 mps 762 mmHg 77%

20 July, Monday

Time Temperature Precipitation Wind Pressure Humidity
00:00 +11°C° 0 mm 6 mps 762 mmHg 76%
01:00 +10°C° 0 mm 5 mps 763 mmHg 78%
02:00 +10°C° 0 mm 5 mps 763 mmHg 80%
03:00 +9°C° 0 mm 5 mps 763 mmHg 82%
04:00 +9°C° 0 mm 5 mps 763 mmHg 80%
05:00 +10°C° 0 mm 5 mps 763 mmHg 79%
06:00 +11°C° 0 mm 4 mps 763 mmHg 77%
07:00 +13°C° 0 mm 4 mps 764 mmHg 70%
08:00 +14°C° 0 mm 4 mps 764 mmHg 63%
09:00 +17°C° 0 mm 3 mps 764 mmHg 57%
10:00 +18°C° 0 mm 3 mps 764 mmHg 54%
11:00 +19°C° 0 mm 3 mps 764 mmHg 51%
12:00 +20°C° 0 mm 2 mps 764 mmHg 48%
13:00 +20°C° 0 mm 3 mps 764 mmHg 49%
14:00 +20°C° 0 mm 3 mps 764 mmHg 50%
15:00 +20°C° 0 mm 4 mps 764 mmHg 51%
16:00 +19°C° 0 mm 4 mps 764 mmHg 52%
17:00 +19°C° 0 mm 4 mps 764 mmHg 53%
18:00 +19°C° 0 mm 4 mps 764 mmHg 55%
19:00 +17°C° 0 mm 3 mps 764 mmHg 62%
20:00 +16°C° 0 mm 3 mps 765 mmHg 68%
21:00 +13°C° 0 mm 3 mps 765 mmHg 75%
22:00 +12°C° 0 mm 3 mps 765 mmHg 79%
23:00 +12°C° 0 mm 3 mps 765 mmHg 83%

21 July, Tuesday

Time Temperature Precipitation Wind Pressure Humidity
00:00 +11°C° 0 mm 4 mps 765 mmHg 87%
01:00 +11°C° 0 mm 3 mps 765 mmHg 86%
02:00 +10°C° 0 mm 3 mps 765 mmHg 86%
03:00 +10°C° 0 mm 3 mps 765 mmHg 85%
04:00 +11°C° 0 mm 3 mps 765 mmHg 81%
05:00 +11°C° 0 mm 4 mps 765 mmHg 77%
06:00 +11°C° 0 mm 4 mps 765 mmHg 73%
07:00 +13°C° 0 mm 4 mps 765 mmHg 67%
08:00 +16°C° 0 mm 3 mps 766 mmHg 61%
09:00 +17°C° 0 mm 3 mps 766 mmHg 56%
10:00 +18°C° 0 mm 3 mps 766 mmHg 53%
11:00 +19°C° 0 mm 2 mps 766 mmHg 49%
12:00 +20°C° 0 mm 2 mps 766 mmHg 46%
13:00 +20°C° 0 mm 3 mps 766 mmHg 48%
14:00 +20°C° 0 mm 3 mps 765 mmHg 49%
15:00 +20°C° 0 mm 4 mps 765 mmHg 51%
16:00 +20°C° 0 mm 4 mps 765 mmHg 52%
17:00 +19°C° 0 mm 3 mps 765 mmHg 54%
18:00 +19°C° 0 mm 3 mps 765 mmHg 55%
19:00 +18°C° 0 mm 3 mps 765 mmHg 60%
20:00 +16°C° 0 mm 3 mps 766 mmHg 66%
21:00 +14°C° 0 mm 2 mps 766 mmHg 71%
22:00 +14°C° 0 mm 2 mps 766 mmHg 73%
23:00 +12°C° 0 mm 3 mps 766 mmHg 76%
Show more